Temperature
2 3 3 2 2 2 2 2 2 3 3 3 3 3 3 2 2 2 1 1 1 1 1 1 1 1 1 1 1 2 2 2 2 2 3 3 3 3 4 4 4 4 4 4
1 2 2 2 2 2 2 2 2 2 2 2 2 2 2 2 1 1 1 1 0 0 0 0 0 0 0 1 1 1 1 1 1 2 2 2 3 3 3 3 3 3 4 4
1 2 2 1 1 1 1 1 2 1 1 1 1 1 1 1 1 0 0 0 -0 -0 -0 -0 -0 -0 -0 0 0 0 0 0 1 1 1 1 2 2 2 2 3 3 3 3
0 1 1 2 2 2 1 1 1 1 1 1 0 0 0 0 0 -0 -0 -1 -1 -1 -1 -1 -1 -1 -1 -0 -0 -0 -0 -0 0 0 1 1 1 1 1 1 2 2 2 2
0 0 1 2 1 1 0 0 0 0 0 0 0 -0 -0 -0 -0 -1 -1 -1 -1 -1 -1 -1 -1 -1 -1 -1 -1 -1 -1 -1 -0 -0 -0 0 0 0 0 1 1 1 1 2
-0 0 1 1 1 1 0 -0 0 -0 -1 -1 -1 -2 -1 -1 -1 -1 -1 -1 -1 -1 -1 -1 -1 -1 -1 -1 -1 -1 -1 -1 -1 -1 -1 -1 -1 -0 -0 -0 0 0 1 1
-1 -0 0 0 0 0 -0 -0 -0 -0 -1 -1 -2 -2 -2 -2 -2 -2 -2 -2 -2 -2 -2 -2 -2 -2 -2 -2 -2 -2 -2 -2 -1 -1 -1 -1 -1 -1 -1 -1 -0 -0 0 0
-1 -1 -0 -0 -1 -1 -1 -1 -1 -1 -1 -2 -2 -2 -3 -3 -3 -2 -2 -2 -2 -2 -2 -2 -2 -2 -2 -2 -2 -2 -2 -2 -2 -2 -2 -2 -1 -1 -1 -1 -1 -1 -1 -0
-1 -1 -0 -0 -1 -1 -1 -2 -2 -2 -2 -3 -3 -3 -3 -3 -3 -3 -3 -3 -3 -3 -3 -3 -3 -3 -3 -3 -3 -3 -3 -3 -2 -2 -2 -2 -2 -2 -2 -2 -1 -1 -1 -1
-2 -1 -1 -1 -1 -1 -2 -2 -3 -3 -3 -3 -3 -3 -4 -4 -3 -3 -3 -3 -3 -3 -3 -3 -3 -3 -3 -3 -3 -3 -3 -3 -3 -2 -2 -2 -2 -2 -2 -2 -2 -2 -2 -2
-3 -2 -2 -1 -2 -2 -2 -3 -3 -3 -3 -4 -4 -4 -4 -4 -4 -4 -4 -4 -3 -3 -3 -3 -3 -3 -3 -3 -3 -3 -3 -3 -3 -3 -3 -3 -3 -3 -2 -2 -2 -2 -2 -2
-2 -2 -3 -2 -2 -3 -3 -3 -4 -4 -4 -4 -4 -4 -4 -4 -4 -4 -4 -4 -4 -4 -3 -4 -3 -3 -3 -3 -3 -3 -3 -3 -3 -3 -3 -3 -3 -3 -3 -3 -2 -2 -2 -2
-2 -2 -2 -3 -3 -3 -4 -4 -4 -4 -4 -4 -4 -4 -4 -4 -4 -4 -4 -4 -4 -4 -4 -4 -4 -4 -4 -4 -4 -3 -3 -3 -3 -3 -3 -3 -3 -3 -3 -3 -3 -3 -3 -3
-3 -3 -4 -4 -4 -4 -4 -4 -4 -4 -4 -4 -4 -4 -4 -4 -4 -4 -4 -4 -4 -4 -4 -4 -4 -4 -4 -4 -4 -4 -4 -4 -4 -4 -4 -4 -4 -4 -4 -4 -3 -3 -3 -3
-4 -4 -4 -4 -4 -5 -5 -5 -5 -5 -5 -4 -4 -5 -5 -5 -4 -5 -5 -5 -5 -4 -4 -4 -4 -4 -4 -4 -4 -4 -4 -4 -4 -4 -4 -4 -4 -4 -4 -4 -4 -4 -4 -3
-4 -4 -5 -5 -5 -5 -5 -5 -5 -5 -5 -5 -5 -5 -5 -5 -5 -5 -5 -5 -5 -5 -5 -5 -5 -5 -5 -5 -5 -4 -4 -4 -4 -4 -4 -4 -4 -4 -4 -5 -5 -4 -4 -4
-5 -5 -5 -6 -5 -5 -5 -5 -5 -5 -5 -5 -5 -5 -5 -5 -5 -5 -5 -5 -5 -5 -5 -5 -5 -5 -5 -5 -5 -5 -5 -5 -5 -4 -4 -4 -5 -5 -5 -5 -5 -5 -5 -5
-5 -5 -5 -5 -6 -6 -5 -5 -5 -5 -5 -5 -5 -5 -6 -6 -6 -5 -5 -5 -5 -5 -5 -5 -6 -6 -5 -5 -5 -5 -5 -5 -5 -5 -5 -5 -5 -5 -5 -5 -5 -5 -5 -5
-5 -5 -5 -5 -5 -6 -5 -5 -5 -5 -5 -6 -6 -6 -6 -6 -6 -6 -6 -6 -6 -6 -6 -6 -6 -6 -6 -6 -6 -6 -6 -5 -5 -5 -5 -5 -5 -5 -5 -5 -5 -5 -5 -5
-5 -5 -5 -5 -5 -5 -5 -6 -6 -6 -6 -6 -6 -6 -6 -6 -6 -6 -6 -6 -6 -6 -6 -6 -6 -6 -6 -6 -6 -6 -6 -6 -6 -6 -5 -5 -5 -5 -5 -5 -6 -6 -5 -5
-5 -5 -5 -5 -5 -5 -5 -6 -6 -6 -6 -6 -6 -6 -6 -6 -6 -6 -6 -6 -6 -6 -6 -6 -6 -6 -6 -6 -6 -6 -6 -6 -6 -6 -6 -6 -6 -6 -6 -6 -6 -6 -6 -6
-5 -5 -5 -5 -5 -5 -6 -6 -6 -6 -6 -6 -6 -6 -6 -6 -7 -7 -7 -7 -7 -7 -7 -7 -7 -7 -7 -7 -7 -7 -7 -7 -7 -7 -7 -7 -7 -6 -6 -6 -6 -6 -6 -6
-5 -5 -5 -5 -6 -6 -6 -6 -6 -6 -6 -6 -7 -7 -7 -7 -7 -7 -7 -7 -7 -7 -7 -7 -7 -7 -7 -7 -7 -7 -7 -7 -7 -7 -7 -7 -7 -7 -7 -7 -7 -6 -6 -6
-5 -5 -5 -6 -6 -6 -6 -6 -6 -7 -7 -7 -7 -7 -7 -7 -7 -7 -8 -7 -7 -7 -7 -7 -7 -7 -7 -7 -7 -7 -7 -7 -7 -7 -7 -7 -7 -7 -7 -7 -7 -7 -7 -6
-6 -6 -6 -6 -6 -6 -6 -7 -7 -7 -7 -7 -7 -7 -8 -8 -8 -8 -8 -8 -8 -8 -8 -7 -7 -7 -7 -7 -7 -7 -7 -8 -8 -8 -7 -7 -7 -7 -7 -7 -7 -7 -7 -6
-6 -6 -6 -6 -7 -7 -7 -7 -7 -7 -7 -7 -8 -8 -8 -8 -8 -8 -8 -8 -8 -8 -8 -8 -8 -8 -8 -8 -8 -8 -8 -8 -8 -8 -8 -8 -8 -8 -7 -7 -7 -7 -7 -7
-6 -7 -7 -7 -7 -7 -7 -7 -8 -8 -8 -8 -8 -8 -8 -8 -8 -8 -8 -8 -8 -8 -8 -8 -8 -8 -8 -8 -8 -8 -8 -8 -8 -8 -8 -8 -8 -8 -8 -8 -7 -7 -7 -7
Wind_Speed
8 8 6 8 8 8 9 9 8 8 8 8 5 5 5 5 5 6 6 5 5 5 4 4 4 4 4 4 4 4 3 3 3 2 2 2 2 2 2 2 3 3 4 4
5 6 6 8 9 9 10 10 10 11 11 5 5 5 6 6 6 5 5 5 5 6 6 5 5 5 5 4 4 4 3 3 3 3 2 2 2 2 2 2 2 3 4 5
4 3 4 6 6 6 4 4 5 8 7 5 6 6 6 6 6 5 5 6 6 6 6 6 5 5 5 4 4 3 3 3 3 3 3 3 3 2 3 2 2 2 4 4
3 3 4 4 1 1 3 4 3 4 5 5 5 5 5 4 4 5 6 6 5 5 6 6 6 5 5 5 4 4 3 3 3 3 3 3 3 3 3 3 2 2 2 3
2 3 6 2 0 1 2 4 2 4 5 6 6 5 4 3 5 6 6 6 5 5 5 5 5 4 4 4 4 4 4 4 3 3 3 3 3 3 3 3 2 2 1 1
3 3 4 2 1 2 0 3 2 3 5 5 5 4 4 6 8 7 7 6 5 5 5 5 5 4 4 4 4 5 5 4 4 3 3 3 4 4 3 3 2 2 1 1
5 4 4 1 2 2 0 3 4 4 4 3 3 3 5 7 7 6 7 6 6 5 5 5 5 4 4 4 4 4 4 4 4 3 3 3 4 4 3 3 1 2 2 1
4 4 5 1 2 1 2 3 4 5 4 4 4 5 6 6 6 7 7 7 6 5 5 5 5 4 4 5 5 5 4 4 4 4 3 3 3 3 3 3 1 1 1 1
4 4 0 1 1 0 1 3 4 4 4 4 5 5 6 6 6 6 6 6 5 4 4 4 4 4 4 5 5 5 4 4 4 4 3 3 2 2 2 2 1 1 0 1
3 3 2 1 0 2 2 2 4 4 4 5 5 5 6 6 5 5 5 6 5 5 4 4 5 5 4 5 5 4 5 4 4 3 3 3 2 2 2 1 1 1 0 0
4 3 3 1 2 2 3 3 3 4 4 4 5 5 5 5 5 5 5 5 5 4 4 5 5 5 5 5 5 5 5 4 4 3 3 2 2 2 2 2 2 1 1 1
4 2 2 4 2 2 2 3 4 4 5 4 4 5 5 4 5 5 5 5 5 5 5 5 5 6 6 5 4 5 5 4 3 3 2 2 2 3 3 3 4 3 2 2
2 2 2 3 3 2 2 4 3 4 4 5 4 4 4 4 4 4 5 5 5 5 5 5 5 6 6 5 5 4 4 5 4 3 2 2 2 2 2 3 3 3 3 3
1 1 2 3 4 4 4 4 3 3 4 4 4 4 4 4 4 5 5 5 5 5 5 5 5 6 5 5 5 5 5 5 4 3 2 2 2 2 2 2 2 2 2 2
2 2 3 4 3 4 3 3 3 4 4 4 4 4 4 4 5 5 6 5 5 5 5 5 5 6 5 5 5 5 4 3 3 3 2 2 2 1 1 2 2 2 1 1
3 3 2 3 4 5 4 4 4 4 4 4 4 4 4 4 5 5 5 4 4 5 6 5 6 6 5 5 5 4 4 5 4 3 2 2 1 1 1 1 2 2 2 1
1 2 3 4 5 5 4 4 4 4 4 4 4 5 4 4 5 5 5 4 4 5 5 5 6 6 5 5 4 4 4 4 5 3 2 2 1 1 1 1 2 2 2 2
2 2 2 3 3 4 5 4 4 4 4 4 4 4 4 4 5 5 5 5 5 5 5 5 5 5 4 4 4 4 3 3 3 2 2 2 2 2 2 2 2 2 2 1
2 2 2 2 2 3 3 4 4 4 4 3 3 4 4 4 5 5 5 5 5 6 5 5 7 5 5 5 5 3 3 3 3 3 2 3 3 2 2 2 2 1 1 1
2 2 2 2 2 2 3 3 3 3 3 3 3 4 4 5 5 5 4 4 4 4 5 5 5 4 4 5 5 3 3 3 3 3 3 2 2 2 1 1 1 1 1 1
2 2 2 2 3 3 3 3 3 3 3 3 3 4 5 5 5 4 4 4 5 5 5 6 4 4 4 4 5 3 3 3 3 3 2 2 2 2 2 1 1 1 1 0
2 2 2 2 3 3 3 3 3 3 3 3 3 4 4 5 5 4 3 4 5 7 5 3 3 5 6 5 3 3 3 3 2 2 2 2 2 2 2 2 1 1 1 0
2 2 2 2 3 4 4 3 3 3 3 3 4 4 4 4 4 4 5 4 4 7 5 3 5 7 7 4 3 3 3 3 3 2 2 2 2 2 2 2 1 1 1 0
2 2 2 2 2 3 4 4 3 3 3 3 4 4 4 4 4 3 3 6 8 7 4 5 8 7 6 3 3 3 3 3 2 2 2 2 2 2 2 1 1 1 1 0
2 2 2 2 2 3 3 3 3 3 3 3 4 4 3 3 3 4 4 4 6 6 4 6 8 7 5 3 3 3 3 3 3 2 2 2 2 2 2 1 1 1 1 0
2 2 3 3 3 2 2 2 2 2 2 3 3 3 3 3 3 3 3 4 4 5 4 3 4 5 3 3 3 3 3 3 3 3 2 2 2 2 2 1 1 1 1 0
2 2 2 2 2 2 2 2 2 3 2 3 4 3 3 3 3 3 3 3 3 3 3 3 3 3 3 3 3 3 3 3 3 3 3 2 2 2 2 2 1 1 1 0
Wind_Direction
267 278 278 269 257 235 229 235 243 264 280 293 324 334 338 341 340 346 349 353 346 339 339 344 349 350 350 345 343 343 341 334 321 317 321 328 317 308 305 274 251 223 213 203
273 257 257 271 264 250 241 242 253 275 284 304 331 337 329 329 330 330 330 338 341 341 339 341 345 342 342 337 339 340 332 327 326 332 333 328 310 311 301 285 269 244 220 204
269 291 310 273 246 225 232 248 241 255 275 328 335 328 321 321 324 331 333 332 333 335 340 346 343 339 336 331 333 336 328 326 334 336 332 326 315 310 301 290 292 273 229 204
283 328 253 245 49 161 224 257 249 273 312 334 328 317 315 320 329 336 331 329 333 335 335 335 334 337 340 342 339 335 333 333 335 330 323 325 323 315 309 314 300 284 241 211
251 260 267 255 81 16 254 274 277 281 306 323 333 328 327 1 355 338 329 327 329 325 324 330 332 337 345 344 338 336 335 333 333 329 321 323 319 315 318 320 313 302 269 219
241 255 256 291 2 344 249 267 10 340 316 325 340 325 314 346 346 340 338 338 338 336 342 342 339 342 345 338 338 334 330 326 330 330 325 322 324 321 320 320 318 315 288 231
234 247 267 317 327 24 121 283 335 347 336 327 309 288 307 325 330 336 336 338 339 343 345 337 337 341 336 333 328 322 323 323 325 325 322 321 325 325 324 321 318 319 300 281
208 226 254 28 68 129 265 325 339 340 343 335 320 318 322 324 328 335 339 340 341 344 342 342 345 342 338 334 327 327 325 322 319 320 319 319 322 327 330 333 338 329 321 342
206 219 280 103 144 360 3 326 324 331 333 333 321 316 318 322 325 331 334 335 336 339 340 345 350 349 339 327 329 326 323 316 310 314 315 314 315 318 321 328 329 323 311 299
264 259 269 270 310 343 339 321 323 327 324 322 309 306 312 317 322 328 330 332 334 340 341 340 343 343 332 325 328 327 322 316 312 310 309 312 307 301 306 308 299 289 277 283
255 277 311 288 293 302 312 324 325 324 321 311 307 304 306 314 318 323 328 329 333 335 332 327 329 330 329 327 327 322 318 317 313 306 298 300 300 293 288 278 267 238 228 223
245 252 257 286 312 326 321 317 320 321 321 319 309 303 310 312 315 320 323 325 328 328 328 327 330 328 327 327 325 320 320 322 316 312 306 304 304 311 306 286 303 301 284 263
254 332 309 296 319 338 313 309 316 315 310 315 319 316 315 315 316 321 322 325 325 323 322 322 323 322 323 327 327 321 315 314 310 305 302 298 294 295 308 322 316 306 299 289
275 343 300 298 308 318 320 321 323 318 314 313 317 321 321 319 319 321 320 318 318 317 316 318 319 318 321 326 323 316 312 311 310 296 291 286 280 280 284 299 314 314 305 289
279 283 276 302 318 321 321 328 328 323 325 326 328 325 322 320 316 314 314 317 321 319 319 322 322 320 325 328 324 319 317 315 313 305 296 291 291 287 284 287 290 295 304 296
298 301 293 303 304 311 320 319 312 310 315 315 320 320 316 312 309 310 316 327 326 317 316 318 316 317 325 327 325 324 322 322 322 318 310 306 297 288 283 280 282 290 287 278
269 286 295 307 307 310 311 306 300 301 307 309 308 311 314 316 318 322 324 324 315 307 308 310 311 319 324 326 323 318 319 321 325 327 317 300 288 276 272 273 280 283 280 281
245 261 280 292 300 305 310 313 311 309 305 304 312 315 314 315 313 313 317 322 322 318 316 315 318 325 327 327 323 319 320 320 321 315 312 301 291 279 273 266 267 274 278 293
295 293 303 308 304 299 299 305 310 311 312 318 317 310 304 302 304 307 315 323 320 316 318 321 326 333 327 325 326 323 323 323 322 321 319 312 307 287 277 267 264 265 272 288
302 301 303 310 314 306 301 307 312 311 314 317 315 313 312 312 314 315 318 312 301 301 309 320 324 321 319 321 326 326 325 321 318 318 319 320 317 308 290 284 284 284 282 278
283 287 299 306 309 307 302 300 301 303 311 317 312 307 305 308 313 314 317 315 314 319 325 328 330 320 320 325 327 326 321 319 320 322 325 324 326 332 329 309 294 294 288 271
278 281 292 301 308 310 311 305 297 301 311 313 309 309 312 315 319 316 300 289 305 323 332 326 323 322 328 330 332 328 326 325 323 323 324 321 323 328 328 320 305 297 286 248
279 280 287 292 293 299 307 304 293 294 294 298 301 301 298 298 302 305 309 312 320 328 335 330 330 333 335 340 338 333 332 330 327 326 326 325 322 321 321 320 312 299 281 257
278 288 291 295 303 307 307 304 298 292 284 285 286 284 287 298 302 287 288 313 326 329 333 332 335 337 342 349 341 335 332 330 327 326 331 333 331 327 325 323 323 319 307 276
266 276 281 289 290 286 288 302 307 302 299 296 295 293 282 268 276 297 306 313 324 332 332 335 339 343 349 344 339 335 334 338 341 342 345 345 339 335 334 337 335 326 321 317
261 264 261 257 261 273 287 297 299 300 307 309 311 313 312 305 296 300 306 313 321 331 336 334 336 340 343 340 339 340 338 335 335 340 337 334 335 332 329 330 325 317 300 284
261 261 271 287 284 273 274 281 287 294 300 302 306 311 315 317 318 321 322 326 328 332 334 335 337 338 338 339 339 336 334 335 337 336 336 334 332 328 324 318 322 326 344 41
Height
1464 1461 1461 1461 1460 1460 1462 1459 1459 1450 1446 1443 1442 1441 1440 1439 1438 1436 1435 1433 1432 1430 1429 1427 1425 1424 1422 1421 1420 1420 1419 1419 1418 1419 1418 1419 1419 1420 1420 1421 1422 1423 1424 1425
1465 1458 1458 1459 1455 1455 1454 1453 1452 1450 1447 1443 1443 1441 1440 1439 1437 1436 1434 1432 1431 1429 1428 1425 1424 1422 1421 1420 1419 1418 1417 1417 1417 1416 1416 1416 1416 1416 1417 1418 1418 1419 1420 1421
1463 1458 1457 1457 1451 1451 1451 1449 1449 1449 1446 1443 1442 1441 1440 1438 1437 1435 1433 1432 1430 1428 1425 1424 1422 1421 1419 1418 1417 1416 1416 1415 1414 1414 1414 1413 1413 1414 1414 1414 1413 1414 1415 1416
1465 1463 1463 1450 1445 1445 1447 1447 1447 1446 1444 1443 1442 1440 1438 1437 1436 1434 1433 1431 1428 1426 1424 1422 1421 1419 1418 1416 1415 1414 1413 1412 1412 1412 1411 1411 1411 1411 1411 1410 1410 1411 1411 1412
1465 1463 1453 1447 1446 1447 1448 1447 1445 1444 1443 1442 1440 1438 1436 1436 1434 1433 1431 1429 1427 1425 1422 1420 1418 1417 1415 1414 1413 1412 1411 1410 1410 1410 1409 1409 1409 1408 1408 1407 1406 1407 1408 1408
1464 1462 1456 1449 1447 1445 1447 1447 1444 1443 1442 1441 1440 1440 1437 1435 1433 1431 1429 1427 1424 1422 1420 1418 1416 1414 1413 1412 1411 1410 1409 1409 1408 1408 1407 1407 1406 1406 1405 1404 1404 1405 1405 1405
1464 1461 1453 1449 1446 1445 1451 1449 1445 1443 1442 1441 1440 1441 1438 1434 1432 1430 1427 1425 1423 1421 1418 1416 1415 1413 1412 1411 1410 1409 1408 1407 1406 1406 1406 1405 1405 1404 1403 1402 1402 1402 1402 1402
1461 1460 1456 1448 1446 1449 1449 1446 1444 1442 1441 1440 1439 1437 1435 1433 1430 1428 1426 1424 1422 1419 1417 1416 1414 1412 1410 1409 1408 1407 1406 1405 1405 1404 1404 1404 1403 1402 1402 1401 1400 1399 1400 1400
1454 1453 1448 1447 1446 1447 1446 1445 1443 1442 1440 1439 1437 1435 1433 1431 1428 1426 1424 1422 1420 1418 1416 1415 1413 1412 1409 1408 1407 1406 1405 1404 1403 1403 1402 1402 1401 1401 1400 1399 1398 1398 1398 1399
1451 1447 1446 1445 1445 1445 1444 1443 1442 1440 1438 1437 1435 1433 1431 1429 1427 1425 1423 1421 1419 1417 1415 1413 1412 1410 1409 1407 1405 1404 1403 1402 1401 1401 1400 1400 1399 1399 1398 1398 1397 1397 1397 1398
1449 1446 1444 1443 1443 1442 1441 1440 1439 1438 1436 1435 1433 1431 1429 1427 1425 1423 1421 1419 1418 1416 1414 1412 1411 1409 1408 1406 1404 1402 1401 1400 1399 1398 1398 1397 1397 1396 1396 1396 1396 1396 1396 1396
1446 1444 1444 1442 1441 1440 1439 1438 1437 1435 1433 1432 1431 1429 1428 1426 1424 1422 1420 1419 1417 1415 1413 1411 1409 1407 1406 1404 1403 1401 1399 1398 1397 1396 1396 1395 1394 1394 1394 1394 1394 1394 1395 1396
1442 1441 1441 1440 1439 1438 1437 1436 1435 1433 1432 1430 1429 1428 1426 1424 1423 1421 1419 1417 1415 1413 1411 1410 1408 1406 1404 1403 1401 1399 1398 1396 1395 1394 1394 1393 1392 1392 1392 1392 1392 1393 1393 1393
1440 1440 1438 1438 1437 1436 1435 1434 1432 1431 1430 1429 1427 1425 1424 1422 1421 1419 1417 1415 1414 1412 1410 1408 1406 1404 1403 1401 1399 1398 1396 1395 1393 1392 1392 1391 1391 1391 1390 1390 1390 1390 1390 1391
1438 1438 1437 1435 1434 1433 1432 1431 1429 1428 1427 1426 1425 1423 1422 1420 1419 1417 1416 1414 1412 1410 1408 1406 1404 1403 1401 1399 1397 1396 1394 1393 1391 1391 1390 1390 1389 1389 1389 1388 1388 1388 1388 1388
1435 1434 1434 1433 1432 1431 1430 1428 1427 1426 1425 1424 1423 1422 1420 1419 1417 1416 1414 1412 1410 1408 1407 1405 1403 1401 1399 1397 1395 1394 1392 1391 1390 1389 1388 1388 1387 1387 1387 1387 1386 1386 1386 1386
1432 1431 1431 1430 1429 1428 1427 1426 1426 1425 1424 1422 1421 1420 1418 1417 1415 1413 1412 1410 1408 1406 1405 1403 1401 1399 1397 1396 1394 1392 1391 1389 1388 1387 1386 1386 1385 1385 1385 1385 1385 1384 1385 1385
1431 1430 1430 1429 1428 1427 1426 1425 1424 1423 1422 1421 1419 1418 1417 1415 1413 1411 1410 1408 1406 1404 1403 1401 1399 1397 1396 1394 1392 1391 1389 1388 1387 1386 1385 1384 1384 1383 1383 1383 1383 1383 1383 1383
1429 1429 1428 1427 1426 1425 1424 1423 1422 1421 1420 1419 1417 1416 1415 1413 1411 1410 1408 1406 1404 1402 1400 1399 1397 1395 1394 1392 1391 1389 1388 1386 1385 1384 1383 1383 1382 1382 1381 1381 1381 1381 1381 1381
1427 1427 1426 1426 1425 1424 1423 1422 1421 1420 1419 1417 1416 1414 1412 1411 1409 1408 1406 1404 1402 1400 1398 1397 1395 1393 1392 1391 1389 1388 1386 1385 1384 1383 1382 1381 1381 1380 1380 1380 1380 1380 1380 1380
1426 1425 1425 1424 1423 1423 1422 1421 1419 1418 1417 1416 1414 1412 1411 1409 1408 1406 1404 1402 1401 1399 1397 1395 1393 1392 1390 1389 1387 1386 1385 1384 1383 1382 1381 1380 1379 1379 1379 1378 1378 1378 1378 1379
1424 1424 1423 1423 1422 1421 1420 1419 1418 1417 1415 1414 1413 1411 1409 1408 1406 1404 1403 1402 1399 1398 1395 1393 1392 1390 1389 1387 1386 1385 1384 1382 1381 1380 1380 1379 1378 1378 1377 1377 1377 1377 1377 1377
1423 1423 1422 1421 1420 1419 1418 1417 1416 1415 1414 1412 1411 1409 1408 1406 1405 1403 1401 1400 1398 1396 1394 1392 1391 1389 1388 1386 1384 1383 1382 1381 1380 1379 1378 1378 1377 1377 1376 1376 1376 1376 1376 1376
1422 1421 1420 1420 1419 1418 1416 1415 1414 1413 1412 1411 1409 1408 1406 1405 1403 1402 1400 1398 1396 1394 1392 1391 1389 1388 1386 1385 1383 1382 1381 1380 1379 1378 1377 1377 1376 1376 1375 1375 1375 1375 1375 1375
1419 1419 1418 1417 1416 1415 1414 1413 1412 1411 1410 1409 1408 1406 1405 1403 1402 1400 1398 1396 1395 1393 1391 1389 1388 1387 1385 1384 1382 1381 1380 1379 1378 1377 1376 1376 1375 1374 1374 1374 1374 1374 1373 1374
1417 1416 1416 1415 1414 1413 1412 1411 1410 1409 1408 1406 1405 1404 1403 1401 1400 1398 1396 1395 1393 1392 1390 1388 1387 1385 1384 1383 1382 1380 1379 1378 1377 1376 1375 1375 1374 1373 1373 1373 1373 1373 1373 1373
1414 1413 1413 1412 1412 1411 1410 1409 1408 1407 1406 1404 1403 1402 1401 1399 1398 1397 1395 1393 1392 1390 1389 1387 1386 1385 1383 1382 1381 1380 1379 1378 1377 1376 1375 1374 1373 1372 1372 1372 1372 1372 1372 1372